GW1238 Weather Reports


time (UTC)temp
C
wind
direction
speed
KPH
gust
KPH
rain 1hr
cm
rain 24hr
cm
rain mn
cm
humidity
%
barometer
mb
20260506185644 20 188 6.4 9.7 0.00 2.11 2.11 98 1016.3
20260506185140 20 153 4.8 6.4 0.18 2.11 2.11 97 1015.8
20260506184638 20 163 4.8 6.4 0.13 2.08 2.08 97 1015.9
20260506184135 20 170 4.8 9.7 0.30 2.08 2.08 97 1016.6
20260506183631 20 175 9.7 11.3 0.30 2.06 2.06 96 1016.9
20260506183127 20 172 8.0 9.7 0.61 2.03 2.03 96 1016.7
20260506182625 20 190 3.2 6.4 1.27 2.01 2.01 96 1016.7
20260506182122 20 161 1.6 3.2 1.07 1.93 1.93 95 1016.4
20260506181620 20 180 0.0 3.2 0.43 1.80 1.80 94 1017.7
20260506181117 21 274 1.6 3.2 0.30 1.75 1.75 94 1017.3
20260506180613 21 258 1.6 6.4 0.18 1.73 1.73 93 1017.1
20260506180110 21 155 0.0 4.8 0.00 1.70 1.70 93 1017.2
20260506175606 21 187 9.7 12.9 0.00 1.70 1.70 93 1016.9
20260506175102 21 203 9.7 11.3 0.00 1.70 1.70 93 1017.2
20260506174601 21 198 9.7 11.3 0.00 1.70 1.70 92 1017.0
20260506174057 21 187 8.0 9.7 0.00 1.70 1.70 92 1017.1
20260506173555 21 202 8.0 11.3 0.00 1.70 1.70 92 1016.9
20260506173051 21 310 1.6 4.8 0.00 1.70 1.70 93 1017.0
20260506172549 21 196 6.4 9.7 0.00 1.70 1.70 93 1016.6
20260506172040 21 211 4.8 11.3 0.00 1.70 1.70 93 1016.5
20260506171537 21 169 3.2 11.3 0.00 1.70 1.70 93 1016.6
20260506171035 21 201 4.8 6.4 0.00 1.70 1.70 93 1016.6
20260506170532 21 192 8.0 9.7 0.00 1.70 1.70 93 1016.6
20260506170029 21 190 9.7 11.3 0.00 1.70 1.70 93 1016.2
20260506165527 21 191 11.3 14.5 0.00 1.70 1.70 92 1016.3
20260506165023 21 197 8.0 9.7 0.00 1.70 1.70 93 1016.5
20260506164520 21 192 11.3 14.5 0.00 1.70 1.70 93 1016.6
20260506164018 21 178 12.9 14.5 0.00 1.70 1.70 94 1016.1
20260506163513 20 193 9.7 16.1 0.00 1.70 1.70 96 1016.2
20260506163009 20 186 12.9 14.5 0.00 1.70 1.70 96 1016.3
20260506162506 20 189 14.5 16.1 0.00 1.70 1.70 97 1016.4
20260506161957 20 174 14.5 16.1 0.00 1.70 1.70 98 1015.9
20260506161455 20 197 11.3 12.9 0.00 1.70 1.70 98 1016.2
20260506160952 20 187 11.3 16.1 0.00 1.70 1.70 98 1016.2
20260506160450 20 172 12.9 14.5 0.00 1.70 1.70 99 1016.3
20260506155947 20 181 12.9 14.5 0.00 1.70 1.70 99 1016.3
20260506155445 19 190 12.9 16.1 0.00 1.70 1.70 99 1016.3
20260506153616 19 179 11.3 12.9 0.00 1.70 1.70 99 1016.2
20260506153114 19 196 8.0 12.9 0.00 1.70 1.70 99 1016.7
20260506152611 19 188 6.4 6.4 0.00 1.70 1.70 99 1017.1
20260506152108 18 196 3.2 11.3 0.00 1.70 1.70 99 1017.3
20260506151606 18 190 6.4 11.3 0.00 1.70 1.70 99 1017.2
20260506151103 18 195 6.4 9.7 0.00 1.70 1.70 99 1017.2
20260506150600 18 202 6.4 6.4 0.00 1.70 1.70 99 1017.1
20260506150057 18 186 3.2 6.4 0.13 1.70 1.70 99 1017.2
20260506145553 18 149 9.7 11.3 0.13 1.70 1.70 99 1016.4
20260506145051 18 131 9.7 11.3 0.18 1.68 1.68 99 1016.0
20260506144547 18 135 6.4 6.4 0.36 1.68 1.68 99 1017.1
20260506144044 18 146 6.4 9.7 0.18 1.65 1.65 99 1017.4
20260506143542 18 172 6.4 9.7 0.30 1.63 1.63 99 1017.9
20260506143041 18 188 9.7 9.7 0.61 1.63 1.63 99 1017.9
20260506142538 18 177 3.2 4.8 0.89 1.55 1.55 99 1017.9
20260506142036 18 164 0.0 0.0 2.69 1.52 1.52 99 1017.6
20260506141533 18 91 3.2 3.2 2.64 1.40 1.40 99 1017.4
20260506141032 18 208 0.0 3.2 1.07 1.07 1.07 99 1018.5
20260506140529 18 149 0.0 0.0 1.19 0.97 0.97 99 1018.0
20260506140026 18 59 0.0 0.0 1.07 0.86 0.86 99 1018.0
20260506135523 18 232 0.0 0.0 0.79 0.76 0.76 99 1017.9
20260506135019 17 259 0.0 0.0 0.43 0.69 0.69 99 1017.7
20260506134515 17 335 0.0 3.2 0.30 0.64 0.64 99 1017.7
20260506134012 17 290 1.6 3.2 0.48 0.61 0.61 99 1017.5
20260506133509 18 289 3.2 4.8 0.48 0.56 0.56 98 1017.4
20260506133005 18 265 3.2 4.8 0.61 0.53 0.53 98 1017.7
20260506132503 18 338 0.0 3.2 0.61 0.48 0.48 98 1017.2
20260506132000 18 286 1.6 3.2 0.30 0.43 0.43 98 1017.1
20260506131457 18 265 1.6 3.2 0.18 0.38 0.38 97 1017.0
20260506130953 18 281 1.6 4.8 0.30 0.38 0.38 97 1017.1
20260506130450 18 159 0.0 4.8 0.43 0.36 0.36 97 1016.5
20260506125948 18 227 1.6 3.2 1.07 0.33 0.33 97 1016.9
20260506125446 18 174 3.2 11.3 1.02 0.25 0.25 96 1016.7
20260506124944 18 187 0.0 3.2 0.79 0.15 0.15 96 1016.6
20260506124441 18 243 4.8 6.4 0.36 0.08 0.08 96 1016.4
20260506123939 18 176 3.2 4.8 0.00 0.03 0.03 96 1015.8
20260506123437 18 250 0.0 0.0 0.00 0.03 0.03 96 1016.2
20260506122934 18 285 0.0 0.0 0.00 0.03 0.03 96 1015.8
20260506122430 18 274 1.6 3.2 0.00 0.03 0.03 95 1015.9
20260506121929 18 275 1.6 3.2 0.00 0.03 0.03 95 1015.8
20260506121426 18 314 1.6 3.2 0.00 0.03 0.03 95 1015.7
20260506120923 18 282 3.2 3.2 0.00 0.03 0.03 94 1015.8
20260506120420 18 279 3.2 3.2 0.00 0.03 0.03 94 1015.6
20260506115917 18 182 0.0 3.2 0.13 0.03 0.03 93 1015.6
20260506115415 18 225 0.0 1.6 0.13 0.03 0.03 92 1015.6
20260506114913 18 225 0.0 1.6 0.00 0.00 0.00 91 1015.3
20260506114410 18 148 0.0 1.6 0.00 0.00 0.00 90 1015.4
20260506113909 18 219 1.6 1.6 0.00 0.00 0.00 90 1015.5
20260506113406 19 269 0.0 3.2 0.00 0.00 0.00 89 1015.4
20260506112903 19 265 1.6 3.2 0.00 0.00 0.00 89 1015.3
20260506112400 19 171 0.0 6.4 0.00 0.00 0.00 88 1015.3
20260506111857 19 194 3.2 6.4 0.00 0.00 0.00 88 1015.1
20260506111355 19 241 1.6 4.8 0.00 0.00 0.00 88 1015.2
20260506110853 19 163 0.0 3.2 0.00 0.00 0.00 87 1015.3
20260506110350 19 231 3.2 3.2 0.00 0.00 0.00 87 1015.3
20260506105847 20 210 1.6 6.4 0.00 0.00 0.00 86 1015.3
20260506105343 20 201 6.4 6.4 0.00 0.00 0.00 85 1014.8
20260506104841 19 190 1.6 6.4 0.00 0.00 0.00 85 1014.9
20260506104338 20 271 3.2 4.8 0.00 0.00 0.00 85 1014.7
20260506103836 20 169 0.0 11.3 0.00 0.00 0.00 85 1014.9
20260506103333 20 197 4.8 11.3 0.00 0.00 0.00 85 1014.8
20260506102830 20 178 9.7 9.7 0.00 0.00 0.00 84 1014.5
20260506102328 20 190 4.8 6.4 0.00 0.00 0.00 84 1014.4
20260506101825 20 177 8.0 9.7 0.00 0.00 0.00 83 1014.4
20260506101321 20 224 4.8 9.7 0.00 0.00 0.00 82 1014.4
20260506100819 20 313 1.6 4.8 0.00 0.00 0.00 81 1014.8
20260506100317 20 181 4.8 9.7 0.00 0.00 0.00 81 1014.6
20260506095815 20 192 9.7 11.3 0.00 0.00 0.00 81 1014.4
20260506095312 20 192 9.7 12.9 0.00 0.00 0.00 81 1014.4
20260506094809 20 180 12.9 16.1 0.00 0.00 0.00 81 1013.9
20260506094307 20 186 14.5 16.1 0.00 0.00 0.00 81 1014.0
20260506093805 20 177 11.3 14.5 0.00 0.00 0.00 81 1014.2
20260506093302 20 179 11.3 12.9 0.00 0.00 0.00 81 1014.5
20260506092800 20 189 9.7 12.9 0.00 0.00 0.00 80 1014.5
20260506092257 20 199 4.8 11.3 0.00 0.00 0.00 80 1014.4
20260506091754 20 179 8.0 11.3 0.00 0.00 0.00 80 1014.4
20260506091252 20 228 3.2 6.4 0.00 0.00 0.00 78 1014.2
20260506090750 20 184 3.2 6.4 0.00 0.00 0.00 77 1014.5
20260506090246 20 244 4.8 9.7 0.00 0.00 0.00 78 1014.6
20260506085743 20 186 4.8 11.3 0.00 0.00 0.00 78 1014.6
20260506085239 20 224 4.8 9.7 0.00 0.00 0.00 78 1014.5
20260506084736 21 188 9.7 12.9 0.00 0.00 0.00 79 1014.4
20260506084232 20 185 11.3 16.1 0.00 0.00 0.00 77 1014.4
20260506083730 21 187 11.3 16.1 0.00 0.00 0.00 80 1014.1
20260506083228 21 179 16.1 17.7 0.00 0.00 0.00 77 1013.8
20260506082725 21 178 14.5 16.1 0.00 0.00 0.00 78 1013.9
20260506082220 21 188 12.9 16.1 0.00 0.00 0.00 77 1014.1
20260506081718 21 178 14.5 16.1 0.00 0.00 0.00 77 1013.9
20260506081215 21 175 12.9 14.5 0.00 0.00 0.00 78 1014.0
20260506080713 21 180 12.9 14.5 0.00 0.00 0.00 76 1013.7
20260506080209 21 184 12.9 16.1 0.00 0.00 0.00 76 1013.7
20260506073154 21 188 11.3 16.1 0.00 0.00 0.00 74 1013.8
20260506072650 21 174 14.5 16.1 0.00 0.00 0.00 74 1013.9
20260506072148 21 179 12.9 12.9 0.00 0.00 0.00 75 1013.9
20260506071645 21 180 12.9 14.5 0.00 0.00 0.00 74 1013.8
20260506071143 21 184 14.5 16.1 0.00 0.00 0.00 72 1013.7
20260506070640 21 182 14.5 16.1 0.00 0.00 0.00 75 1013.9
20260506070137 21 181 12.9 16.1 0.00 0.00 0.00 72 1013.7
20260506062114 21 182 11.3 12.9 0.00 0.00 0.00 73 1014.5
20260506061610 21 187 11.3 12.9 0.00 0.00 0.00 72 1014.5
20260506061108 21 192 9.7 12.9 0.00 0.00 0.00 72 1014.7
20260506060606 21 183 9.7 14.5 0.00 0.00 0.00 72 1014.7
20260506051034 21 187 6.4 11.3 0.00 0.00 0.00 68 1015.0
20260506050532 21 192 8.0 9.7 0.00 0.00 0.00 68 1015.0
20260506045023 22 195 6.4 6.4 0.00 0.00 0.00 68 1015.1
20260506044521 21 199 4.8 9.7 0.00 0.00 0.00 66 1015.2
20260506044017 22 248 3.2 11.3 0.00 0.00 0.00 66 1015.2
20260506043514 22 196 6.4 9.7 0.00 0.00 0.00 67 1015.3
20260506043013 22 190 8.0 11.3 0.00 0.00 0.00 66 1015.1
20260506042512 22 181 6.4 11.3 0.00 0.00 0.00 67 1015.1
20260506042009 22 186 8.0 11.3 0.00 0.00 0.00 68 1015.2
20260506041508 22 184 8.0 9.7 0.00 0.00 0.00 66 1015.0
20260506041004 22 186 9.7 11.3 0.00 0.00 0.00 65 1015.2
20260506040502 22 181 9.7 11.3 0.00 0.00 0.00 66 1015.2
20260506035957 22 188 8.0 11.3 0.00 0.00 0.00 67 1015.1
20260506035455 22 184 9.7 11.3 0.00 0.00 0.00 66 1015.2
20260506034951 22 188 9.7 14.5 0.00 0.00 0.00 65 1015.1
20260506034449 22 201 8.0 11.3 0.00 0.00 0.00 67 1015.1
20260506033946 22 186 9.7 11.3 0.00 0.00 0.00 63 1015.3
20260506033443 22 188 6.4 9.7 0.00 0.00 0.00 62 1015.5
20260506032939 22 215 3.2 9.7 0.00 0.00 0.00 63 1015.8
20260506032437 22 189 4.8 9.7 0.00 0.00 0.00 65 1015.5
20260506031933 22 180 9.7 11.3 0.00 0.00 0.00 68 1015.6
20260506031431 22 217 8.0 11.3 0.00 0.00 0.00 66 1015.3
20260506030929 22 199 8.0 11.3 0.00 0.00 0.00 64 1015.5
20260506030426 22 175 9.7 11.3 0.00 0.00 0.00 64 1015.2
20260506025923 22 184 6.4 6.4 0.00 0.00 0.00 65 1015.3
20260506025420 22 191 8.0 9.7 0.00 0.00 0.00 66 1015.6
20260506024916 22 233 1.6 6.4 0.00 0.00 0.00 60 1015.9
20260506024414 22 199 6.4 9.7 0.00 0.00 0.00 60 1015.8
20260506023909 22 201 6.4 9.7 0.00 0.00 0.00 60 1015.8
20260506023407 22 194 8.0 11.3 0.00 0.00 0.00 60 1015.8
20260506022903 22 192 3.2 11.3 0.00 0.00 0.00 61 1015.6
20260506022401 22 189 9.7 11.3 0.00 0.00 0.00 61 1015.1
20260506021859 22 197 11.3 12.9 0.00 0.00 0.00 62 1015.1
20260506021355 22 199 8.0 11.3 0.00 0.00 0.00 64 1015.0
20260506020852 22 203 4.8 11.3 0.00 0.00 0.00 61 1015.0
20260506020350 22 203 6.4 6.4 0.00 0.00 0.00 62 1015.1
20260506015847 22 187 9.7 11.3 0.00 0.00 0.00 61 1014.8
20260506015345 22 215 6.4 11.3 0.00 0.00 0.00 62 1014.9
20260506014841 22 187 9.7 11.3 0.00 0.00 0.00 62 1015.0
20260506014338 22 214 3.2 9.7 0.00 0.00 0.00 63 1014.8
20260506013835 22 201 4.8 9.7 0.00 0.00 0.00 63 1014.8
20260506013332 22 192 6.4 11.3 0.00 0.00 0.00 66 1014.7
20260506012829 22 184 8.0 9.7 0.00 0.00 0.00 66 1014.9
20260506012326 22 186 8.0 11.3 0.00 0.00 0.00 62 1014.8
20260506011823 22 186 8.0 11.3 0.00 0.00 0.00 62 1014.7
20260506011319 22 193 6.4 11.3 0.00 0.00 0.00 61 1014.6
20260506010817 22 197 6.4 12.9 0.00 0.00 0.00 64 1014.6
20260506010315 22 187 9.7 11.3 0.00 0.00 0.00 64 1014.7
20260506005811 22 188 9.7 12.9 0.00 0.00 0.00 65 1014.4
20260506005308 22 179 11.3 12.9 0.00 0.00 0.00 61 1014.5
20260506004805 22 182 9.7 14.5 0.00 0.00 0.00 62 1014.4
20260506004302 22 177 11.3 11.3 0.00 0.00 0.00 63 1014.4
20260506003758 22 176 9.7 11.3 0.00 0.00 0.00 62 1014.5
20260506003254 22 182 8.0 9.7 0.00 0.00 0.00 61 1014.5
20260506002751 22 182 6.4 6.4 0.00 0.00 0.00 66 1014.4
20260506002247 22 188 6.4 9.7 0.00 0.00 0.00 64 1014.6
20260506001743 22 193 3.2 9.7 0.00 0.00 0.00 60 1014.9
20260506001241 22 198 6.4 6.4 0.00 0.00 0.00 60 1014.7
20260506000737 22 206 1.6 6.4 0.00 0.00 0.00 57 1015.1
20260506000235 21 198 0.0 3.2 0.00 0.00 0.00 60 1014.9
20260505235732 21 180 1.6 3.2 0.00 0.00 0.00 62 1014.9
20260505235230 21 301 0.0 1.6 0.00 0.00 0.00 62 1014.9
20260505234726 21 338 0.0 4.8 0.00 0.00 0.00 62 1014.8
20260505234224 21 219 0.0 1.6 0.00 0.00 0.00 64 1014.8
20260505233720 22 16 0.0 1.6 0.00 0.00 0.00 60 1014.7
20260505233218 22 162 0.0 4.8 0.00 0.00 0.00 61 1015.0
20260505232715 22 267 1.6 3.2 0.00 0.00 0.00 60 1014.8
20260505232212 22 171 0.0 1.6 0.00 0.00 0.00 58 1014.9
20260505231709 22 324 0.0 1.6 0.00 0.00 0.00 59 1014.8
20260505231208 22 194 0.0 6.4 0.00 0.00 0.00 57 1014.8
20260505230706 22 195 6.4 9.7 0.00 0.00 0.00 56 1015.0
20260505230202 22 203 4.8 9.7 0.00 0.00 0.00 56 1014.8
20260505225658 22 187 1.6 4.8 0.00 0.00 0.00 60 1014.8
20260505225155 22 193 4.8 6.4 0.00 0.00 0.00 60 1014.6
20260505224651 22 187 8.0 9.7 0.00 0.00 0.00 63 1014.4
20260505224149 22 194 4.8 6.4 0.00 0.00 0.00 56 1014.6
20260505223646 22 195 0.0 6.4 0.00 0.00 0.00 57 1015.0
20260505223142 22 100 0.0 3.2 0.00 0.00 0.00 59 1014.9
20260505222638 22 221 1.6 4.8 0.00 0.00 0.00 58 1015.0
20260505222135 22 192 4.8 6.4 0.00 0.00 0.00 56 1014.8
20260505221632 22 208 4.8 6.4 0.00 0.00 0.00 57 1014.8
20260505221128 22 200 6.4 6.4 0.00 0.00 0.00 52 1015.0
20260505220626 23 179 6.4 6.4 0.00 0.00 0.00 56 1015.2
20260505220123 23 189 8.0 11.3 0.00 0.00 0.00 57 1014.9
20260505215621 23 189 9.7 12.9 0.00 0.00 0.00 58 1014.8
20260505215119 23 172 8.0 14.5 0.00 0.00 0.00 47 1015.0
20260505214617 23 173 8.0 11.3 0.00 0.00 0.00 56 1014.8
20260505214113 23 179 8.0 12.9 0.00 0.00 0.00 60 1014.9
20260505213611 23 185 9.7 14.5 0.00 0.00 0.00 57 1014.8
20260505213107 23 178 9.7 12.9 0.00 0.00 0.00 60 1015.0
20260505212603 23 192 12.9 17.7 0.00 0.00 0.00 57 1015.2
20260505212102 23 180 14.5 17.7 0.00 0.00 0.00 56 1015.3
20260505211558 23 204 14.5 16.1 0.00 0.00 0.00 55 1015.0
20260505211055 23 175 14.5 17.7 0.00 0.00 0.00 54 1015.4
20260505210552 23 192 9.7 16.1 0.00 0.00 0.00 56 1015.6
20260505210049 24 191 16.1 16.1 0.00 0.00 0.00 58 1015.4
20260505205546 24 176 17.7 20.9 0.00 0.00 0.00 55 1015.5
20260505205044 24 177 12.9 17.7 0.00 0.00 0.00 52 1015.1
20260505204541 24 180 16.1 22.5 0.00 0.00 0.00 49 1015.2
20260505204038 24 174 16.1 22.5 0.00 0.00 0.00 49 1015.2
20260505203535 24 181 17.7 17.7 0.00 0.00 0.00 51 1015.4
20260505203032 24 179 14.5 14.5 0.00 0.00 0.00 55 1015.5
20260505202528 24 177 12.9 22.5 0.00 0.00 0.00 56 1015.6
20260505202024 24 243 8.0 12.9 0.00 0.00 0.00 53 1015.5
20260505201521 24 191 9.7 20.9 0.00 0.00 0.00 55 1015.6
20260505201018 24 187 16.1 20.9 0.00 0.00 0.00 57 1015.8
20260505200517 24 200 17.7 20.9 0.00 0.00 0.00 55 1016.0
20260505200013 24 190 8.0 14.5 0.00 0.00 0.00 51 1015.9
20260505195509 24 188 20.9 24.1 0.00 0.00 0.00 55 1015.9
20260505195007 25 169 14.5 22.5 0.00 0.00 0.00 52 1015.9
20260505194504 24 185 14.5 22.5 0.00 0.00 0.00 55 1015.8
20260505194004 24 185 17.7 22.5 0.00 0.00 0.00 53 1015.9
20260505193502 24 185 16.1 17.7 0.00 0.00 0.00 54 1016.3
20260505192959 24 188 20.9 24.1 0.00 0.00 0.00 52 1016.3
20260505192457 25 171 19.3 24.1 0.00 0.00 0.00 50 1016.3
20260505191954 24 232 6.4 14.5 0.00 0.00 0.00 50 1016.3
20260505191453 24 180 17.7 22.5 0.00 0.00 0.00 50 1016.4
20260505190950 24 194 12.9 20.9 0.00 0.00 0.00 52 1016.2
20260505190444 24 194 14.5 16.1 0.00 0.00 0.00 48 1016.3
20260505185940 24 187 14.5 17.7 0.00 0.00 0.00 48 1016.1